Location: Bonny Doon Airfield
(37.0704°N, 122.1252°W)
Time: 22:43:11
(UTC-07:00)

Vanguard 2 - Pass Details

Date: 13 December 2017
Orbit: 553 x 2939 km, 32.9° (Epoch: 25 April)

Event Time Altitude Azimuth Distance (km) Brightness Sun altitude
Rises 12:51:01 0° 209° (SSW) 5,710 13.1 28.7°
Reaches altitude 10° 12:56:44 10° 194° (SSW) 4,208 13.0 28.4°
Maximum altitude 13:03:18 18° 156° (SSE) 2,952 11.5 28.1°
Drops below altitude 10° 13:08:16 10° 115° (ESE) 3,040 10.8 27.8°
Sets 13:11:28 0° 97° (E) 3,661 10.9 27.6°
